Location: Palombina Nuova
(43.6167°N, 13.4000°E)
Time: 08:33:09
(UTC+00:00)

Cosmos 1500 Rocket - Pass Details

Date: 17 February 2020
Orbit: 602 x 632 km, 82.5° (Epoch: 27 March)

Event Time Altitude Azimuth Distance (km) Brightness Sun altitude
Rises 04:56:25 0° 342° (NNW) 2,926 6.8 -12.7°
Reaches altitude 10° 04:58:49 10° 334° (NNW) 2,010 5.9 -12.2°
Maximum altitude 05:02:50 34° 269° (W) 1,025 4.2 -11.5°
Drops below altitude 10° 05:06:48 10° 205° (SSW) 1,979 6.0 -10.8°
Sets 05:09:09 0° 196° (SSW) 2,874 6.9 -10.4°
